This demonstration page uses our WeatherBlox Daily Observations layout. Learn more.

Left ArrowRight Arrow

44.8408, -93.29828

Hourly Observations for December 9, 2019

Temp ( °F °C ) Dew Point ( °F °C ) Humidity (%) Winds ( mph kmh ) Pressure ( in mb ) Visibility ( mi km ) Precip ( " mm )
12:53 am 00:53 Cloudy with Mist and Fog 34 1.1 30 -1.1 85 85 NE 3 6 29.72 1006 6 10 0.00 0.00
1:53 am 01:53 Cloudy with Mist and Fog 34 1.1 30 -1.1 85 85 NNE 6 9 29.69 1005 5 8 0.00 0.00
2:46 am 02:46 Cloudy with Mist and Fog 33 0.6 30 -1.1 89 89 N 5 7 29.69 1006 5 8 0.00 0.00
2:53 am 02:53 Cloudy with Mist and Fog 33 0.6 30 -1.1 89 89 NNW 5 7 29.68 1005 5 8 0.00 0.00
3:05 am 03:05 Cloudy with Mist and Fog 33 0.6 30 -1.1 89 89 NNW 5 7 29.69 1006 5 8 0.00 0.00
3:53 am 03:53 Cloudy with Mist and Fog 33 0.6 30 -1.1 89 89 NE 6 9 29.64 1004 4 6 0.00 0.00
4:16 am 04:16 Cloudy with Mist and Fog 33 0.6 30 -1.1 89 89 ENE 6 9 29.63 1003 4 6 0.00 0.00
4:53 am 04:53 Cloudy with Mist and Fog 33 0.6 30 -1.1 89 89 NE 5 7 29.60 1002 4 6 0.00 0.00
5:07 am 05:07 Cloudy with Light Snow 33 0.6 30 -1.1 89 89 NNE 5 7 29.60 1002 2 3 0.00 0.00
5:12 am 05:12 Cloudy with Light Snow 33 0.6 31 -0.6 92 92 N 5 7 29.61 1003 2 2 0.00 0.00
5:17 am 05:17 Cloudy with Light Snow 33 0.6 31 -0.6 92 92 N 6 9 29.60 1002 2 3 0.00 0.00
5:53 am 05:53 Cloudy with Light Snow 33 0.6 31 -0.6 92 92 NW 12 19 29.61 1003 3 5 0.00 0.00
6:14 am 06:14 Cloudy with Light Snow 32 0 30 -1.1 92 92 NNW 13 20 29.62 1003 2 3 0.02 0.51
6:30 am 06:30 Cloudy with Light Snow 32 0 30 -1.1 92 92 NNW 10 17 29.62 1003 4 6 0.02 0.51
6:42 am 06:42 Cloudy with Light Snow 31 -0.6 27 -2.8 85 85 N 16 26 29.63 1003 3 5 0.02 0.51
6:53 am 06:53 Cloudy with Light Snow 30 -1.1 27 -2.8 88 88 N 16 26 29.61 1003 4 6 0.02 0.51
7:05 am 07:05 Cloudy with Light Snow 30 -1.1 27 -2.8 88 88 NNW 16 26 29.64 1004 2 3 0.01 0.25
7:15 am 07:15 Windy with Snow Likely 27 -2.8 23 -5 85 85 NNW 20 31 29.65 1004 2 3 0.01 0.25
7:27 am 07:27 Cloudy with Light Snow 26 -3.3 23 -5 88 88 NNW 13 20 29.65 1004 1 2 0.02 0.51
7:40 am 07:40 Cloudy with Light Snow 25 -3.9 21 -6.1 85 85 NNW 16 26 29.65 1004 1 2 0.02 0.51
7:53 am 07:53 Cloudy with Light Snow 24 -4.4 21 -6.1 88 88 NNW 16 26 29.63 1004 1 2 0.03 0.76
8:03 am 08:03 Cloudy with Light Snow 24 -4.4 20 -6.7 84 84 NNW 13 20 29.67 1005 1 1 0.00 0.00
8:11 am 08:11 Cloudy with Snow 23 -5 20 -6.7 88 88 NNW 14 22 29.67 1005 1 1 0.02 0.51
8:24 am 08:24 Mostly Cloudy with Snow 22 -5.6 19 -7.2 89 89 NNW 15 24 29.68 1005 1 1 0.03 0.76
8:53 am 08:53 Mostly Cloudy with Snow 21 -6.1 18 -7.8 88 88 NNW 17 28 29.65 1004 1 1 0.06 1.52
9:08 am 09:08 Mostly Cloudy with Light Snow 21 -6.1 17 -8.3 85 85 NNW 18 30 29.70 1006 1 2 0.00 0.00
9:12 am 09:12 Windy with Snow Likely 21 -6.1 17 -8.3 85 85 NNW 20 31 29.70 1006 2 2 0.00 0.00
9:22 am 09:22 Windy with Snow Likely 20 -6.7 16 -8.9 85 85 NNW 20 31 29.71 1006 2 3 0.01 0.25
9:32 am 09:32 Cloudy with Light Snow 20 -6.7 16 -8.9 85 85 NNW 17 28 29.71 1006 4 6 0.03 0.76
9:40 am 09:40 Cloudy with Light Snow 20 -6.7 15 -9.4 81 81 NNW 14 22 29.71 1006 5 8 0.03 0.76
9:53 am 09:53 Cloudy with Light Snow 20 -6.7 16 -8.9 85 85 NNW 16 26 29.67 1005 9 14 0.03 0.76
9:58 am 09:58 Windy with Snow Likely 20 -6.7 15 -9.4 81 81 NNW 20 31 29.72 1006 9 14 0.00 0.00
10:06 am 10:06 Cloudy with Light Snow 20 -6.7 14 -10 78 78 NNW 18 30 29.73 1007 4 6 0.00 0.00
10:12 am 10:12 Cloudy with Light Snow 19 -7.2 14 -10 81 81 NNW 17 28 29.73 1007 2 3 0.00 0.00
10:53 am 10:53 Windy with Snow Likely 18 -7.8 13 -10.6 81 81 NNW 20 31 29.71 1006 3 4 0.01 0.25
11:14 am 11:14 Cloudy with Light Snow 18 -7.8 12 -11.1 77 77 NNW 18 30 29.75 1008 4 6 0.00 0.00
11:53 am 11:53 Windy with Snow Likely 16 -8.9 9 -12.8 74 74 NNW 24 39 29.72 1006 9 14 0.01 0.25
12:53 pm 12:53 Cloudy with Light Snow 17 -8.3 9 -12.8 70 70 NNW 15 24 29.72 1007 9 14 0.00 0.00
1:53 pm 13:53 Windy with Snow Likely 16 -8.9 8 -13.3 71 71 NW 20 31 29.75 1007 9 14 0.00 0.00
2:02 pm 14:02 Cloudy with Light Snow 16 -8.9 8 -13.3 71 71 NW 15 24 29.79 1009 9 14 0.00 0.00
2:53 pm 14:53 Cloudy with Light Snow 14 -10 7 -13.9 73 73 NW 17 28 29.78 1009 5 8 0.00 0.00
3:53 pm 15:53 Cloudy with Light Snow 14 -10 7 -13.9 73 73 NW 14 22 29.81 1010 5 8 0.00 0.00
4:53 pm 16:53 Cloudy 13 -10.6 5 -15 70 70 NW 17 28 29.84 1011 9 14 0.00 0.00
5:53 pm 17:53 Cloudy 13 -10.6 4 -15.6 67 67 NNW 15 24 29.87 1012 10 16 0.00 0.00
6:53 pm 18:53 Cloudy 10 -12.2 2 -16.7 69 69 NW 16 26 29.91 1013 10 16 0.00 0.00
7:53 pm 19:53 Clear 6 -14.4 -2 -18.9 69 69 WNW 10 17 29.96 1015 10 16 0.00 0.00
8:53 pm 20:53 Clear 4 -15.6 -5 -20.6 66 66 WNW 12 19 29.99 1016 7 11 0.00 0.00
9:53 pm 21:53 Clear 2 -16.7 -7 -21.7 65 65 WNW 9 15 30.01 1016 10 16 0.00 0.00
10:53 pm 22:53 Clear 0 -17.8 -9 -22.8 65 65 NW 9 15 30.03 1017 10 16 0.00 0.00
11:53 pm 23:53 Clear -1 -18.3 -10 -23.3 65 65 NW 10 17 30.06 1018 10 16 0.00 0.00

Powered by AerisWeather